Location: Mascot Post Office (historical)
(40.2645°N, 99.5462°W)
Time: 01:32:54
(UTC+00:00)

Helios 1B rocket - Pass Details

Date: 14 July 2020
Orbit: 574 x 584 km, 98.1° (Epoch: 14 August)

Event Time Altitude Azimuth Distance (km) Brightness Sun altitude
Rises 06:53:41 0° 17° (NNE) 2,803 7.1 -28.1°
Reaches altitude 10° 06:55:53 10° 22° (NNE) 1,898 5.9 -28.1°
Enters shadow 06:58:34 36° 43° (NE) 918 3.7 -28.1°
